FW8702 Weather Reports


time (UTC)temp
C
wind
direction
speed
KPH
gust
KPH
rain 1hr
cm
rain 24hr
cm
rain mn
cm
humidity
%
barometer
mb
20260507080017 14 285 0.0 0.0 0.00 2.59 0.13 81 1015.2
20260507074544 14 321 0.0 3.2 0.03 2.59 0.13 81 1015.3
20260507073009 13 304 0.0 1.6 0.03 2.59 0.13 82 1015.4
20260507071524 12 69 0.0 8.0 0.03 2.59 0.13 82 1015.4
20260507070010 12 63 1.6 16.1 0.03 2.59 0.13 82 1015.3
20260507064520 12 36 4.8 19.3 0.00 2.57 0.10 83 1015.1
20260507063046 12 85 0.0 4.8 0.00 2.57 0.10 83 1015.1
20260507061525 12 61 1.6 12.9 0.00 2.57 0.10 83 1015.0
20260507060003 12 98 0.0 6.4 0.00 2.59 0.10 84 1014.9
20260507054529 11 32 0.0 8.0 0.00 2.59 0.10 86 1014.7
20260507053059 11 298 0.0 1.6 0.00 2.59 0.10 87 1014.7
20260507051504 11 42 1.6 11.3 0.00 2.59 0.10 86 1014.6
20260507050029 11 296 0.0 3.2 0.00 3.30 0.10 86 1014.5
20260507044541 11 79 0.0 3.2 0.00 3.30 0.10 85 1014.3
20260507043041 11 71 0.0 4.8 0.00 3.30 0.10 86 1014.1
20260507041605 11 331 0.0 1.6 0.00 3.30 0.10 86 1014.2
20260507040103 11 8 0.0 8.0 0.00 3.30 0.10 85 1013.9
20260507034526 11 3 0.0 9.7 0.00 3.33 0.10 85 1014.0
20260507033039 11 29 0.0 11.3 0.00 3.33 0.10 85 1013.9
20260507031554 11 62 0.0 16.1 0.00 3.33 0.10 86 1013.7
20260507030105 11 73 0.0 8.0 0.00 3.33 0.10 87 1013.8
20260507024520 11 42 0.0 0.0 0.00 3.38 0.10 87 1013.9
20260507023050 11 40 0.0 4.8 0.00 3.38 0.10 86 1013.8
20260507021515 11 17 0.0 0.0 0.00 3.38 0.10 86 1013.9
20260507020107 11 296 0.0 1.6 0.00 3.38 0.10 86 1014.0
20260507014510 11 55 0.0 8.0 0.00 3.58 0.10 87 1013.7
20260507013022 11 13 0.0 0.0 0.00 3.58 0.10 88 1013.7
20260507011535 11 61 0.0 3.2 0.00 3.58 0.10 87 1013.6
20260507010033 11 84 0.0 3.2 0.03 3.63 0.10 88 1013.6
20260507004548 11 57 0.0 3.2 0.05 3.63 0.10 87 1013.6
20260507003006 11 88 0.0 16.1 0.05 3.63 0.10 87 1013.5
20260507001535 11 68 0.0 16.1 0.05 3.63 0.10 87 1013.5
20260507000033 11 52 6.4 25.7 0.05 3.63 0.08 86 1013.4
20260506234545 12 80 0.0 9.7 0.03 3.61 0.05 85 1013.5
20260506233008 12 59 0.0 14.5 0.03 3.61 0.05 86 1013.5
20260506231520 11 86 0.0 14.5 0.05 3.61 0.05 87 1013.3
20260506230021 12 48 0.0 19.3 0.03 3.58 0.03 88 1013.3
20260506224537 12 77 1.6 17.7 0.10 3.58 0.03 89 1013.3
20260506223000 12 44 4.8 19.3 0.15 3.58 0.03 88 1013.2
20260506221529 11 67 0.0 8.0 0.13 3.56 0.00 89 1013.4
20260506220027 12 116 0.0 8.0 0.13 3.56 3.56 88 1013.2
20260506214534 12 96 0.0 4.8 0.10 3.48 3.48 87 1013.1
20260506213046 12 84 1.6 9.7 0.10 3.43 3.43 86 1013.3
20260506211512 12 54 0.0 14.5 0.13 3.43 3.43 86 1013.0
20260506210009 12 61 0.0 9.7 0.13 3.56 3.43 86 1012.9
20260506204534 12 97 0.0 3.2 0.08 3.51 3.38 86 1012.8
20260506203049 12 179 0.0 0.0 0.03 3.45 3.33 86 1012.8
20260506201508 12 87 0.0 1.6 0.00 3.43 3.30 87 1012.8
20260506200025 12 51 0.0 3.2 0.00 3.66 3.30 90 1012.6
20260506194552 12 291 0.0 0.0 0.00 3.66 3.30 91 1012.4
20260506193059 12 291 0.0 0.0 0.00 3.66 3.30 90 1012.2
20260506191522 12 291 0.0 0.0 0.00 3.66 3.30 89 1011.9
20260506190032 12 37 0.0 0.0 0.00 3.81 3.30 88 1011.6
20260506184604 12 37 0.0 0.0 0.08 3.81 3.30 87 1011.5
20260506183010 13 105 1.6 12.9 0.20 3.81 3.30 85 1010.8
20260506181527 13 111 1.6 16.1 0.61 3.81 3.30 85 1010.8
20260506180028 12 83 0.0 16.1 0.61 3.96 3.30 86 1010.4
20260506174539 12 84 0.0 1.6 0.53 3.89 3.23 85 1010.6
20260506173136 13 75 0.0 8.0 0.43 3.78 3.12 81 1010.3
20260506171600 15 105 0.0 17.7 0.00 3.35 2.69 74 1010.0
20260506170011 16 88 0.0 3.2 0.00 3.45 2.69 73 1009.8
20260506164526 16 97 0.0 11.3 0.00 3.45 2.69 72 1009.8
20260506163102 16 77 0.0 14.5 0.00 3.45 2.69 72 1009.6
20260506161513 16 104 0.0 4.8 0.00 3.45 2.69 72 1009.3
20260506160016 15 124 3.2 19.3 0.00 3.51 2.69 74 1009.1
20260506154536 15 106 0.0 20.9 0.00 3.51 2.69 75 1009.5
20260506153047 15 81 0.0 12.9 0.00 3.51 2.69 76 1009.6
20260506151507 15 76 0.0 11.3 0.00 3.51 2.69 77 1010.0
20260506150024 15 91 0.0 16.1 0.00 3.51 2.69 77 1009.9
20260506144554 15 57 3.2 14.5 0.00 3.51 2.69 79 1009.9
20260506143020 15 51 11.3 25.7 0.00 3.51 2.69 80 1010.1
20260506141533 15 99 0.0 19.3 0.00 3.51 2.69 80 1010.1
20260506140044 15 88 0.0 6.4 0.00 3.51 2.69 81 1010.1
20260506134555 15 69 0.0 3.2 0.00 3.51 2.69 82 1010.1
20260506133021 13 53 0.0 8.0 0.00 3.51 2.69 85 1010.6
20260506131552 12 38 0.0 8.0 0.00 3.51 2.69 87 1010.7
20260506130034 12 46 0.0 4.8 0.43 3.53 2.69 91 1010.6
20260506124547 11 13 0.0 0.0 1.12 3.53 2.69 94 1010.5
20260506123016 10 34 0.0 3.2 1.19 3.53 2.69 93 1010.6
20260506121543 10 17 0.0 8.0 1.19 3.53 2.69 92 1010.8
20260506120106 10 321 0.0 9.7 0.76 3.12 2.26 91 1010.8
20260506114534 10 308 3.2 35.4 0.20 2.44 1.57 89 1010.2
20260506113049 11 28 4.8 25.7 0.41 2.36 1.50 86 1010.0
20260506111518 12 22 4.8 16.1 0.41 2.36 1.50 88 1009.9
20260506110033 13 202 0.0 16.1 0.41 2.41 1.50 90 1009.6
20260506104547 14 128 1.6 17.7 0.28 2.29 1.37 88 1009.4
20260506103016 14 151 3.2 19.3 0.00 2.01 1.09 85 1009.5
20260506101539 15 109 3.2 20.9 0.00 2.01 1.09 85 1009.8
20260506100051 15 142 1.6 19.3 0.00 2.03 1.09 84 1009.7
20260506094515 16 126 3.2 22.5 0.00 2.03 1.09 85 1009.4
20260506093045 15 126 3.2 29.0 0.00 2.03 1.09 86 1009.2
20260506091538 15 133 3.2 29.0 0.00 2.03 1.09 88 1009.2
20260506090058 13 143 1.6 17.7 0.00 2.06 1.09 90 1009.1
20260506084511 13 170 4.8 27.4 0.00 2.06 1.09 93 1009.2
20260506083040 13 136 1.6 20.9 0.00 2.06 1.09 95 1009.5
20260506081604 13 145 0.0 3.2 0.00 2.06 1.09 97 1009.5